| time (UTC) | temp F | wind direction | speed knots | gust knots | rain 1hr in | rain 24hr in | rain mn in | humidity % | barometer mb |
| 20260505093056 | 55 | 167 | 2.6 | 4.3 | 0.00 | 0.00 | 0.00 | 65 | 1014.1 |
| 20260505091551 | 55 | 144 | 2.6 | 4.3 | 0.00 | 0.00 | 0.00 | 65 | 1014.0 |
| 20260505090056 | 55 | 144 | 0.9 | 3.5 | 0.00 | 0.00 | 0.00 | 64 | 1014.0 |
| 20260505084550 | 55 | 140 | 0.9 | 4.3 | 0.00 | 0.00 | 0.00 | 65 | 1013.9 |
| 20260505083102 | 55 | 144 | 2.6 | 7.0 | 0.00 | 0.00 | 0.00 | 65 | 1013.7 |
| 20260505081542 | 57 | 136 | 4.3 | 6.1 | 0.00 | 0.00 | 0.00 | 62 | 1013.7 |
| 20260505080044 | 57 | 146 | 2.6 | 4.3 | 0.00 | 0.00 | 0.00 | 60 | 1013.4 |
| 20260505074538 | 57 | 157 | 0.9 | 4.3 | 0.00 | 0.00 | 0.00 | 60 | 1013.3 |
| 20260505073039 | 57 | 169 | 0.0 | 2.6 | 0.00 | 0.00 | 0.00 | 60 | 1013.2 |
| 20260505071535 | 57 | 152 | 0.0 | 4.3 | 0.00 | 0.00 | 0.00 | 62 | 1013.2 |
| 20260505070039 | 58 | 146 | 2.6 | 4.3 | 0.00 | 0.00 | 0.00 | 62 | 1013.1 |
| 20260505064533 | 58 | 136 | 1.7 | 4.3 | 0.00 | 0.00 | 0.00 | 62 | 1013.1 |
| 20260505063031 | 58 | 134 | 1.7 | 5.2 | 0.00 | 0.00 | 0.00 | 61 | 1013.1 |
| 20260505061534 | 59 | 130 | 2.6 | 6.1 | 0.00 | 0.00 | 0.00 | 61 | 1013.1 |
| 20260505060025 | 60 | 123 | 3.5 | 7.0 | 0.00 | 0.00 | 0.00 | 60 | 1013.1 |
| 20260505054535 | 61 | 130 | 3.5 | 6.1 | 0.00 | 0.00 | 0.00 | 58 | 1012.9 |
| 20260505053025 | 61 | 145 | 1.7 | 3.5 | 0.00 | 0.00 | 0.00 | 58 | 1012.9 |
| 20260505051522 | 61 | 148 | 1.7 | 4.3 | 0.00 | 0.00 | 0.00 | 58 | 1013.1 |
| 20260505041511 | 64 | 146 | 1.7 | 4.3 | 0.00 | 0.00 | 0.00 | 55 | 1012.9 |
| 20260505040019 | 64 | 148 | 1.7 | 4.3 | 0.00 | 0.00 | 0.00 | 55 | 1012.9 |
| 20260505034508 | 64 | 138 | 1.7 | 3.5 | 0.00 | 0.00 | 0.00 | 55 | 1012.9 |
| 20260505033012 | 65 | 147 | 1.7 | 5.2 | 0.00 | 0.00 | 0.00 | 56 | 1012.8 |
| 20260505031506 | 65 | 170 | 0.9 | 4.3 | 0.00 | 0.00 | 0.00 | 56 | 1013.0 |
| 20260505030013 | 65 | 182 | 0.9 | 4.3 | 0.00 | 0.00 | 0.00 | 55 | 1013.0 |
| 20260505024506 | 65 | 178 | 0.9 | 4.3 | 0.00 | 0.00 | 0.00 | 56 | 1013.0 |
| 20260505023005 | 66 | 180 | 0.9 | 4.3 | 0.00 | 0.00 | 0.00 | 55 | 1013.1 |
| 20260505021505 | 66 | 154 | 1.7 | 4.3 | 0.00 | 0.00 | 0.00 | 55 | 1013.1 |
| 20260505020008 | 67 | 138 | 1.7 | 4.3 | 0.00 | 0.00 | 0.00 | 55 | 1013.2 |
| 20260505014504 | 67 | 164 | 1.7 | 3.5 | 0.00 | 0.00 | 0.00 | 54 | 1013.0 |
| 20260505013004 | 68 | 180 | 1.7 | 4.3 | 0.00 | 0.00 | 0.00 | 54 | 1012.7 |
| 20260505011502 | 68 | 149 | 0.9 | 4.3 | 0.00 | 0.00 | 0.00 | 54 | 1012.7 |
| 20260505010005 | 68 | 162 | 1.7 | 5.2 | 0.00 | 0.00 | 0.00 | 54 | 1012.4 |
| 20260505004502 | 69 | 158 | 1.7 | 6.1 | 0.00 | 0.00 | 0.00 | 54 | 1012.3 |
| 20260505003001 | 70 | 157 | 0.9 | 4.3 | 0.00 | 0.00 | 0.00 | 52 | 1012.3 |
| 20260505001601 | 71 | 170 | 1.7 | 3.5 | 0.00 | 0.00 | 0.00 | 50 | 1012.3 |
| 20260505000108 | 72 | 175 | 0.0 | 2.6 | 0.00 | 0.00 | 0.00 | 49 | 1012.2 |
| 20260504234612 | 73 | 175 | 0.9 | 2.6 | 0.00 | 0.00 | 0.00 | 47 | 1012.1 |
| 20260504233059 | 74 | 183 | 0.9 | 5.2 | 0.00 | 0.00 | 0.00 | 46 | 1012.1 |
| 20260504231559 | 74 | 203 | 2.6 | 6.1 | 0.00 | 0.00 | 0.00 | 45 | 1012.2 |
| 20260504230057 | 75 | 227 | 2.6 | 6.1 | 0.00 | 0.00 | 0.00 | 45 | 1012.1 |
| 20260504224557 | 75 | 248 | 5.2 | 10.4 | 0.00 | 0.00 | 0.00 | 44 | 1012.2 |
| 20260504223056 | 75 | 225 | 6.1 | 11.3 | 0.00 | 0.00 | 0.00 | 43 | 1012.2 |
| 20260504221553 | 74 | 223 | 3.5 | 10.4 | 0.00 | 0.00 | 0.00 | 45 | 1012.4 |
| 20260504220101 | 74 | 217 | 5.2 | 9.6 | 0.00 | 0.00 | 0.00 | 44 | 1012.6 |
| 20260504214556 | 74 | 211 | 5.2 | 13.0 | 0.00 | 0.00 | 0.00 | 44 | 1012.6 |
| 20260504213108 | 74 | 271 | 5.2 | 12.2 | 0.00 | 0.00 | 0.00 | 43 | 1012.4 |
| 20260504211551 | 73 | 186 | 7.0 | 13.0 | 0.00 | 0.00 | 0.00 | 44 | 1012.3 |
| 20260504210050 | 73 | 248 | 4.3 | 13.0 | 0.00 | 0.00 | 0.00 | 45 | 1012.4 |
| 20260504204559 | 73 | 252 | 4.3 | 9.6 | 0.00 | 0.00 | 0.00 | 44 | 1012.3 |
| 20260504203049 | 73 | 167 | 7.8 | 16.5 | 0.00 | 0.00 | 0.00 | 43 | 1012.4 |
| 20260504201547 | 74 | 248 | 7.0 | 13.9 | 0.00 | 0.00 | 0.00 | 43 | 1012.6 |
| 20260504200046 | 74 | 243 | 9.6 | 16.5 | 0.00 | 0.00 | 0.00 | 41 | 1012.8 |
| 20260504194544 | 74 | 197 | 8.7 | 14.8 | 0.00 | 0.00 | 0.00 | 41 | 1012.9 |
| 20260504193058 | 73 | 224 | 6.1 | 12.2 | 0.00 | 0.00 | 0.00 | 42 | 1013.0 |
| 20260504191542 | 73 | 216 | 7.0 | 13.0 | 0.00 | 0.00 | 0.00 | 41 | 1013.2 |
| 20260504190042 | 74 | 250 | 4.3 | 11.3 | 0.00 | 0.00 | 0.00 | 40 | 1013.4 |
| 20260504184542 | 73 | 321 | 2.6 | 9.6 | 0.00 | 0.00 | 0.00 | 41 | 1013.5 |
| 20260504183044 | 72 | 185 | 3.5 | 16.5 | 0.00 | 0.00 | 0.00 | 41 | 1013.7 |
| 20260504181536 | 73 | 210 | 7.0 | 13.9 | 0.00 | 0.00 | 0.00 | 39 | 1014.1 |
| 20260504180034 | 72 | 213 | 6.1 | 13.9 | 0.00 | 0.00 | 0.00 | 40 | 1014.3 |
| 20260504174530 | 72 | 260 | 6.1 | 12.2 | 0.00 | 0.00 | 0.00 | 40 | 1014.5 |
| 20260504173031 | 72 | 240 | 4.3 | 10.4 | 0.00 | 0.00 | 0.00 | 41 | 1014.5 |
| 20260504171526 | 72 | 215 | 2.6 | 8.7 | 0.00 | 0.00 | 0.00 | 41 | 1014.6 |
| 20260504100109 | 49 | 167 | 0.9 | 2.6 | 0.00 | 0.00 | 0.00 | 64 | 1016.7 |